This demonstration page uses our WeatherBlox Daily Observations layout. Learn more.

Left ArrowRight Arrow

Hourly Observations for July 9, 2015

Temp ( °F °C ) Dew Point ( °F °C ) Humidity (%) Winds ( mph kmh ) Pressure ( in mb ) Visibility ( mi km ) Precip ( " mm )
12:52 am 00:52 Cloudy with Mist and Fog 69 20.6 67 19.4 93 93 W 8 13 29.98 1015 4 6 0.00 0.00
1:45 am 01:45 Cloudy with Mist and Fog 69 20.6 67 19.4 93 93 WSW 6 9 29.97 1015 5 8 0.00 0.00
1:52 am 01:52 Cloudy 69 20.6 67 19.4 93 93 WSW 6 9 29.98 1015 7 11 0.00 0.00
2:39 am 02:39 Cloudy 69 20.6 67 19.4 93 93 WSW 6 9 29.97 1015 10 16 0.00 0.00
2:52 am 02:52 Cloudy 69 20.6 67 19.4 93 93 SW 5 7 29.98 1015 10 16 0.00 0.00
3:29 am 03:29 Cloudy 69 20.6 67 19.4 93 93 SW 6 9 29.97 1015 9 14 0.00 0.00
3:52 am 03:52 Cloudy 69 20.6 67 19.4 93 93 SSW 7 11 29.98 1015 9 14 0.00 0.00
4:15 am 04:15 Cloudy 69 20.6 67 19.4 93 93 Calm 30.00 1016 9 14 0.00 0.00
4:27 am 04:27 Cloudy 69 20.6 67 19.4 93 93 SSW 3 6 30.00 1016 9 14 0.00 0.00
4:37 am 04:37 Cloudy 69 20.6 67 19.4 93 93 SSW 5 7 30.00 1016 9 14 0.00 0.00
4:52 am 04:52 Cloudy 69 20.6 67 19.4 93 93 SW 6 9 29.99 1016 8 13 0.00 0.00
5:48 am 05:48 Cloudy 70 21 66 19 88 88 SW 7 11 30.00 1016 7 11 0.00 0.00
5:52 am 05:52 Cloudy 69 20.6 67 19.4 93 93 SW 6 9 30.01 1016 7 11 0.00 0.00
6:00 am 06:00 Cloudy with Mist and Fog 70 21 66 19 88 88 SW 3 6 30.00 1016 6 10 0.00 0.00
6:35 am 06:35 Cloudy with Mist and Fog 69 20.6 67 19.4 93 93 WSW 5 7 30.03 1017 5 8 0.00 0.00
6:52 am 06:52 Cloudy with Mist and Fog 69 20.6 67 19.4 93 93 SW 3 6 30.03 1017 5 8 0.00 0.00
6:59 am 06:59 Cloudy with Mist and Fog 70 21.1 67 19.4 90 90 WSW 3 6 30.03 1017 5 8 0.00 0.00
7:08 am 07:08 Cloudy with Mist and Fog 70 21 66 19 88 88 Calm 30.03 1017 5 8 0.00 0.00
7:45 am 07:45 Cloudy 69 20.6 67 19.4 93 93 NNW 3 6 30.03 1017 7 11 0.00 0.00
7:52 am 07:52 Cloudy 69 20.6 67 19.4 93 93 NNW 5 7 30.04 1017 8 13 0.00 0.00
8:26 am 08:26 Cloudy with Light Rain 68 20 66 19 94 94 N 7 11 30.06 1018 6 10 0.00 0.00
8:52 am 08:52 Cloudy with Light Rain 69 20.6 67 19.4 93 93 N 6 9 30.06 1018 6 10 0.00 0.03
9:52 am 09:52 Cloudy 68 20 66 18.9 93 93 NE 8 13 30.06 1018 10 16 0.02 0.51
10:31 am 10:31 Cloudy with Light Rain 71 21.7 67 19.4 87 87 ENE 3 6 30.06 1018 10 16 0.00 0.03
10:52 am 10:52 Cloudy 71 21.7 67 19.4 87 87 N 6 9 30.07 1018 10 16 0.00 0.03
11:52 am 11:52 Cloudy 74 23.3 69 20.6 85 85 NE 7 11 30.04 1017 10 16 0.00 0.03
12:15 pm 12:15 Cloudy 74 23.3 68 20 82 82 N 5 7 30.06 1018 10 16 0.00 0.00
12:52 pm 12:52 Cloudy 74 23.3 68 20 82 82 N 3 6 30.05 1018 10 16 0.00 0.00
1:01 pm 13:01 Cloudy with Light Rain 76 24.4 69 20.6 79 79 N 3 6 30.03 1017 10 16 0.00 0.03
1:52 pm 13:52 Cloudy with Rain 74 23.3 70 21.1 88 88 ESE 3 6 30.04 1017 4 6 0.02 0.51
2:05 pm 14:05 Cloudy with Rain 73 22.8 69 20.6 87 87 WSW 5 7 30.06 1018 2 3 0.05 1.27
2:09 pm 14:09 Cloudy with Thunderstorms 73 22.8 70 21.1 90 90 WSW 5 7 30.06 1018 2 2 0.09 2.29
2:25 pm 14:25 Cloudy with Strong Thunderstorms 72 22.2 70 21.1 94 94 S 7 11 30.06 1018 1 2 0.25 6.35
2:32 pm 14:32 Cloudy with Thunderstorms 72 22 70 21 94 94 VRB 3 6 30.06 1018 3 5 0.00 0.00
2:52 pm 14:52 Cloudy with Thunderstorms 72 22.2 69 20.6 91 91 SE 6 9 30.04 1017 4 6 0.31 7.87
3:05 pm 15:05 Cloudy with Rain 71 21.7 69 20.6 94 94 ESE 3 6 30.03 1017 4 6 0.05 1.27
3:12 pm 15:12 Cloudy with Nearby Thunderstorms 72 22 70 21 94 94 SSW 5 7 30.06 1018 5 8 0.00 0.00
3:27 pm 15:27 Cloudy with Light Rain 72 22.2 69 20.6 91 91 Calm 30.03 1017 10 16 0.08 2.03
3:52 pm 15:52 Mostly Cloudy with Light Rain 73 22.8 69 20.6 87 87 S 5 7 30.03 1017 10 16 0.08 2.03
4:52 pm 16:52 Mostly Cloudy with Light Rain 74 23.3 70 21.1 88 88 SSE 8 13 30.01 1016 10 16 0.00 0.03
5:14 pm 17:14 Partly Cloudy 73 23 72 22 94 94 SE 10 17 29.97 1015 10 16 0.00 0.00
5:52 pm 17:52 Partly Cloudy 73 22.8 69 20.6 87 87 SE 8 13 29.99 1016 10 16 0.00 0.03
6:39 pm 18:39 Mostly Cloudy with Tornado 73 22.8 69 20.6 87 87 Calm 29.97 1015 10 16 0.00 0.03
6:43 pm 18:43 Mostly Cloudy with Thunderstorms 73 22.8 69 20.6 87 87 W 3 6 29.97 1015 10 16 0.00 0.03
6:52 pm 18:52 Cloudy with Thunderstorms 72 22.2 69 20.6 91 91 WNW 9 15 30.01 1016 10 16 0.00 0.03
7:00 pm 19:00 Cloudy with Strong Thunderstorms 72 22 70 21 94 94 W 10 17 30.03 1017 3 5 0.00 0.00
7:07 pm 19:07 Cloudy with Strong Thunderstorms 70 21.1 68 20 93 93 SW 12 19 30.03 1017 2 2 0.22 5.59
7:18 pm 19:18 Cloudy with Strong Thunderstorms 70 21 66 19 88 88 SW 10 17 30.00 1016 2 3 0.00 0.00
7:28 pm 19:28 Cloudy with Thunderstorms 70 21 66 19 88 88 S 8 13 30.00 1016 6 10 0.00 0.00
7:42 pm 19:42 Cloudy with Nearby Thunderstorms 68 20 66 19 94 94 S 7 11 30.00 1016 6 10 0.00 0.00
7:49 pm 19:49 Cloudy with Thunderstorms 68 20 66 19 94 94 SSE 8 13 30.00 1016 6 10 0.48 12.19
7:52 pm 19:52 Cloudy with Thunderstorms 68 20 66 18.9 93 93 SE 6 9 29.99 1016 7 11 0.48 12.19
8:18 pm 20:18 Mostly Cloudy with Rain 68 20 66 19 94 94 SSE 6 9 30.00 1016 9 14 0.00 0.00
8:52 pm 20:52 Cloudy with Light Rain 68 20 66 18.9 93 93 SE 8 13 29.97 1015 10 16 0.05 1.27
9:52 pm 21:52 Mostly Cloudy 69 20.6 67 19.4 93 93 S 9 15 30.00 1016 10 16 0.00 0.03
10:36 pm 22:36 Cloudy 70 21 66 19 88 88 Calm 30.03 1017 10 16 0.00 0.00
10:52 pm 22:52 Cloudy 69 20.6 67 19.4 93 93 Calm 30.02 1017 10 16 0.00 0.00
11:52 pm 23:52 Cloudy 70 21.1 68 20 93 93 S 6 9 30.02 1017 10 16 0.00 0.00

Powered by AerisWeather